GFSFLT2_prec_cthk_114.txt.gz
RH
21 22 22 20 17 15 15 16 17 19 21 24 26 28 31 32 35 37 44 50 58 61 62 60 60 64 69 72 74 77 76 71
21 21 21 21 18 16 16 16 17 19 22 25 26 28 31 34 37 40 45 50 58 61 62 58 61 64 63 67 72 75 80 83
22 22 21 22 20 17 16 18 18 20 23 26 27 27 29 34 37 40 47 51 57 62 61 59 63 61 61 59 63 78 84 88
24 23 23 22 23 19 16 17 18 19 22 24 26 27 28 31 36 40 47 51 63 61 58 62 64 64 63 58 63 73 88 91
26 25 25 24 23 23 19 17 18 19 22 23 24 26 27 30 36 41 48 54 56 56 57 60 62 66 62 62 62 68 81 90
27 28 28 26 25 24 22 19 19 19 21 23 24 26 27 28 33 39 46 51 51 54 57 57 58 57 55 55 59 70 77 81
32 31 31 29 27 26 25 22 20 20 21 23 24 26 26 28 31 35 41 46 49 52 55 55 55 55 52 51 58 67 72 76
38 35 33 32 29 28 27 25 22 22 22 22 24 26 28 28 30 32 35 40 46 50 51 53 51 48 46 47 55 65 68 80
47 41 36 33 31 30 28 27 25 25 24 24 24 25 27 30 30 30 31 35 41 44 45 48 48 46 44 44 49 62 73 83
53 44 40 34 36 35 31 27 26 28 27 26 26 26 27 30 32 32 32 34 39 40 42 45 46 45 44 47 50 56 77 86
53 46 38 35 40 44 36 30 29 34 31 29 28 28 28 28 30 33 35 37 39 39 39 41 43 43 45 50 53 56 70 87
54 49 38 39 43 49 44 37 40 39 40 35 31 30 31 29 29 32 35 39 41 39 40 39 40 43 47 52 54 62 78 87
56 52 42 41 44 46 48 44 42 42 39 40 38 33 33 32 31 31 34 37 41 43 43 42 41 42 47 52 54 57 73 85
52 55 46 44 45 44 47 47 48 43 42 41 44 43 38 35 33 34 35 37 40 44 46 45 43 42 46 54 57 56 71 81
43 51 47 48 47 46 48 47 49 47 46 47 49 47 46 45 40 38 38 39 40 45 48 48 44 43 47 54 56 55 63 76
45 46 43 43 45 46 48 46 43 42 45 50 52 51 52 49 46 45 43 43 43 47 50 54 49 44 48 49 55 56 65 71
56 50 44 43 48 48 50 49 48 49 50 55 58 57 55 50 48 48 46 47 45 47 52 57 52 46 43 45 52 60 69 75
63 61 55 49 51 54 53 52 50 50 53 59 70 66 60 58 55 51 50 48 47 48 55 59 57 50 43 43 45 58 78 89
71 71 63 59 59 64 60 56 52 54 54 61 66 70 69 64 62 55 53 49 47 50 55 60 60 53 44 43 47 54 75 93
70 71 68 66 68 69 65 60 58 59 60 57 58 68 68 69 63 59 60 53 49 50 54 59 61 53 46 46 49 53 73 92

GFSFLT2_prec_cthk_117.txt.gz
RH
24 22 22 21 20 19 19 19 19 18 19 21 23 25 28 31 34 38 40 46 48 56 58 58 57 58 63 67 69 72 75 74
23 23 23 23 22 21 19 19 20 20 19 21 23 27 29 31 35 38 40 46 48 54 56 57 56 59 59 56 60 74 76 78
25 24 24 23 23 23 21 19 20 22 22 22 24 27 30 34 36 37 40 45 49 53 56 55 55 59 62 61 65 74 84 85
27 25 25 24 25 24 23 21 19 23 24 24 25 26 30 34 37 38 40 44 48 54 55 52 56 60 63 62 60 66 78 91
29 29 26 26 27 27 27 24 21 21 24 24 25 27 29 33 37 39 40 43 47 53 53 50 54 57 59 58 59 62 73 82
32 31 29 27 28 28 28 25 23 20 22 25 25 27 28 30 34 38 40 42 47 52 51 49 52 52 53 52 53 57 64 82
37 35 31 29 31 30 28 27 26 24 21 24 25 26 27 28 32 37 39 42 47 49 48 48 49 50 49 48 48 53 60 69
41 39 35 32 32 31 29 29 29 27 23 23 24 26 27 28 30 35 39 40 45 47 48 49 48 46 47 46 44 48 57 67
45 41 40 35 34 31 31 31 30 29 25 24 24 25 27 28 29 32 36 39 43 43 45 46 43 43 45 45 42 44 51 60
49 45 45 41 37 33 32 33 33 31 28 26 26 25 27 29 29 31 34 37 41 42 43 45 43 44 43 43 44 46 50 56
46 52 48 50 41 39 35 36 36 33 31 29 28 27 28 30 30 31 33 37 41 42 41 42 43 43 43 43 45 47 52 56
46 51 56 60 50 45 39 41 39 34 33 35 32 29 28 30 32 32 32 34 38 42 42 43 42 43 44 45 45 45 52 56
45 51 63 68 58 46 41 46 43 38 40 41 39 35 31 30 33 34 33 33 36 39 43 44 44 43 41 42 43 45 49 51
47 52 64 68 66 47 48 55 49 43 48 45 45 42 41 36 33 35 36 35 35 38 41 45 46 47 45 44 43 45 47 51
49 55 65 65 68 56 57 57 58 59 54 49 46 45 43 41 40 39 39 38 37 39 41 44 48 51 50 46 45 46 45 47
53 65 76 72 76 64 55 55 54 53 58 57 52 53 51 49 47 46 44 43 41 42 44 46 50 54 55 52 46 46 47 45
58 61 73 75 73 72 59 61 60 60 57 56 58 58 58 57 55 50 48 45 44 44 48 46 50 56 56 54 53 46 49 46
65 61 58 60 66 68 63 58 58 59 58 56 55 58 64 64 59 55 53 52 51 50 49 48 50 53 58 60 57 50 46 47
72 66 62 59 58 58 56 54 55 57 61 59 55 56 61 68 66 64 65 60 58 55 50 49 50 53 59 62 61 53 49 46
78 74 70 67 66 63 60 61 62 62 64 62 58 59 60 63 68 75 77 71 63 64 59 51 51 51 56 64 62 55 46 45

GFSFLT2_prec_cthk_123.txt.gz
RH
43 34 33 31 30 26 24 23 22 23 24 24 27 31 32 34 33 34 36 38 43 47 49 54 54 52 50 51 56 67 80 93
42 37 32 32 32 28 27 25 24 25 24 25 28 31 35 33 34 35 37 39 43 46 49 53 52 51 51 53 58 65 74 90
51 43 38 36 36 30 28 28 26 26 25 26 28 31 32 33 35 36 37 39 43 46 50 51 50 51 51 52 56 58 73 83
59 54 45 41 40 36 30 28 28 27 27 26 28 33 36 38 39 36 38 39 41 44 48 50 51 52 51 53 55 68 67 75
53 60 45 38 45 39 34 33 33 32 32 30 31 35 40 45 49 38 38 39 40 43 44 50 53 56 61 59 60 57 62 62
47 58 52 40 40 39 34 33 35 38 36 34 34 35 42 45 43 42 39 40 43 44 46 51 57 56 56 62 61 61 52 50
31 52 56 45 40 42 36 34 32 40 40 34 37 35 37 42 40 41 38 41 46 44 48 54 56 54 56 52 51 57 54 48
32 40 56 59 43 43 41 37 35 32 34 36 38 36 36 40 40 40 39 42 43 47 48 53 53 52 51 50 48 49 51 51
25 35 50 60 55 45 48 42 38 30 28 36 35 34 38 40 37 37 38 41 42 47 49 56 51 51 50 47 46 44 50 48
14 26 35 55 60 48 49 49 40 32 29 31 37 37 34 35 39 40 37 41 40 44 47 49 47 49 51 49 47 44 45 45
12 20 28 44 66 59 50 49 44 39 34 30 35 38 36 34 40 35 38 36 37 40 44 48 45 46 47 47 47 46 46 43
15 15 27 36 58 69 59 55 48 43 39 38 32 35 38 36 34 31 32 33 32 39 42 43 47 46 47 46 46 46 47 45
18 16 24 34 50 79 66 58 50 44 41 42 37 32 35 35 35 33 32 34 31 34 37 41 42 45 47 46 47 44 41 41
37 26 29 35 44 73 79 65 55 46 44 43 39 34 32 35 34 33 32 36 33 34 36 38 43 43 43 46 49 45 45 39
38 36 35 37 44 71 85 79 64 54 50 47 41 41 35 35 35 34 35 35 35 37 36 37 42 45 44 44 46 46 49 52
35 30 26 32 50 65 82 84 65 52 51 51 46 44 38 34 38 38 39 40 39 39 39 38 41 43 46 44 46 48 51 55
54 36 29 20 44 60 72 83 74 61 58 56 53 51 47 40 42 44 44 42 42 44 45 46 46 49 47 47 48 51 50 51
65 46 34 26 48 64 71 82 88 75 65 65 59 55 49 54 50 50 48 48 48 51 52 51 50 51 55 56 54 55 52 51
70 56 47 35 59 70 81 79 96 83 78 87 64 62 61 70 69 65 63 60 59 61 62 63 57 55 60 61 60 58 55 55
88 72 59 44 69 68 79 81 91 97 76 93 85 72 68 76 73 69 69 65 69 73 71 69 68 66 70 69 67 63 60 58

GFSFLT2_prec_cthk_126.txt.gz
RH
43 39 36 34 34 31 28 26 26 24 23 23 24 26 30 33 30 34 34 36 39 45 48 49 54 53 50 47 47 53 69 86
46 44 36 36 35 31 28 27 27 25 25 24 26 27 30 31 32 32 32 35 38 43 45 46 51 50 49 48 50 54 58 70
41 52 47 38 36 33 30 28 27 26 26 26 27 29 30 32 32 31 32 38 40 41 43 47 48 47 47 49 49 51 53 66
29 47 60 51 39 36 33 29 27 26 25 25 27 31 31 30 32 32 34 35 38 40 43 45 46 46 46 48 50 54 63 64
28 35 54 67 54 44 38 32 29 27 25 25 27 30 34 36 36 38 36 34 35 37 41 43 45 50 48 49 53 59 52 59
26 29 44 60 69 51 49 39 32 28 25 26 27 30 36 41 46 47 43 36 36 37 40 42 44 50 52 53 57 60 58 62
10 27 31 49 61 59 51 48 41 33 29 27 28 30 35 46 43 49 42 36 38 39 40 42 47 52 54 53 49 50 50 49
11 12 28 34 53 60 51 50 45 45 37 31 28 31 35 43 44 47 42 36 39 41 41 44 49 50 49 48 48 47 48 46
12 13 16 31 43 66 59 57 52 45 43 37 32 34 36 38 42 43 43 39 39 42 42 45 50 57 48 49 46 46 45 45
15 12 13 21 35 52 63 59 61 49 42 39 33 32 38 38 41 42 40 38 38 40 42 43 48 51 51 49 48 44 42 43
22 16 12 13 26 39 66 71 64 55 46 38 37 34 37 38 37 43 37 37 37 38 40 44 49 47 46 50 50 47 44 43
20 20 18 14 16 29 40 68 76 69 51 39 39 35 35 36 38 43 37 39 37 39 40 42 44 43 45 43 50 50 48 45
23 19 19 22 16 24 39 45 81 77 61 45 37 35 32 36 38 40 40 41 39 39 41 41 44 43 44 41 49 48 49 51
38 33 24 20 26 26 45 52 66 85 72 53 44 37 32 34 39 37 35 37 37 37 40 42 43 42 41 44 46 43 44 45
44 43 39 30 21 27 37 49 66 90 84 63 50 41 39 35 36 39 34 33 36 37 38 41 41 43 44 42 45 40 41 42
47 42 44 43 26 25 27 44 66 85 92 69 56 48 41 39 37 41 38 36 36 38 40 41 43 42 46 44 42 43 47 47
51 48 42 50 43 23 22 38 58 76 94 81 63 55 45 43 41 45 44 38 35 38 43 44 45 46 42 45 47 47 46 49
62 64 54 56 50 27 21 31 48 71 85 85 67 56 49 45 45 47 47 46 42 43 46 49 50 52 51 50 49 52 52 54
74 75 70 55 56 46 27 27 53 65 92 89 74 61 54 49 54 54 50 52 52 52 54 52 57 59 59 57 58 58 61 60
83 83 83 64 61 58 33 31 51 69 83 99 84 72 70 61 68 59 53 60 61 66 63 68 66 69 70 68 64 66 69 69